Tracking 29892 objects as of 21-Nov-2024
HD Live streaming from Space Station
objects crossing your sky now

FENGYUN 1C DEB

Track FENGYUN 1C DEB now!
10-day predictions


NORAD ID: 41825
Int'l Code: 1999-025EYC
Perigee: 787.3 km
Apogee: 870.4 km
Inclination: 98.8 °
Period: 101.3 minutes
Semi major axis: 7199 km
RCS: Unknown
Launch date: May 10, 1999
Source: People's Republic of China (PRC)
Launch site: Taiyaun Space Center, China (TSC)

Note: This is SATELLITE DEBRIS
Your satellite tracking list
Your tracking list is empty




NASA's NSSDC Master Catalog

Two Line Element Set (TLE):
1 41825U 99025EYC 24324.12580768  .00005095  00000-0  23262-2 0  9993
2 41825  98.7680  29.1949 0057725 264.4143  95.0449 14.21086674418209
Source of the keplerian elements: AFSPC